Location: Cahas Mountain Overlook
(37.0833°N, 80.1000°W)
Time: 19:06:20
(UTC-04:00)

Tiros 1 - Pass Details

Date: 13 February 2026
Orbit: 618 x 649 km, 48.4° (Epoch: 13 March)

Event Time Altitude Azimuth Distance (km) Brightness Sun altitude
Rises 11:27:05 0° 262° (W) 2,894 10.4 37.3°
Reaches altitude 10° 11:29:35 10° 271° (W) 1,984 9.6 37.4°
Maximum altitude 11:33:44 34° 337° (NNW) 1,021 8.0 37.7°
Drops below altitude 10° 11:37:53 10° 43° (NE) 1,979 9.5 38.0°
Sets 11:40:22 0° 53° (NE) 2,885 10.3 38.1°
